SCP
0 0 0 0 0 0 0 0 0 0 0 0 0 0 0 0 0 -0 0 0 0 0 0 0 0 0 0 0 0 0 0 0 0 0 0 0 0 0 0 0 0 0 0 0 0 0 0 0 -0 0 0 0 0 0
0 0 0 0 0 0 0 0 0 0 0 0 0 0 0 0 0 -0 0 0 0 0 0 0 -0 -0 -0 0 0 0 0 0 0 0 0 0 0 0 0 0 0 0 0 0 0 0 -0 0 0 0 0 0 0 0
0 0 0 0 0 0 0 0 0 0 0 0 0 0 0 0 0 0 0 0 -0 0 0 0 0 0 0 0 0 0 0 0 0 0 0 0 0 0 0 0 0 0 0 0 0 0 -0 -0 0 0 0 0 0 0
0 0 0 0 0 0 0 0 0 0 0 0 0 0 0 0 0 0 0 0 0 0 0 0 0 0 0 0 0 0 0 0 0 0 0 0 0 0 0 0 0 0 0 0 0 0 -0 0 0 -0 0 0 0 0
0 0 0 0 0 0 0 0 0 0 0 0 0 0 0 0 0 -0 0 0 0 0 0 0 0 0 0 0 0 0 0 0 0 0 0 0 0 0 0 0 0 0 0 0 0 0 0 0 0 0 0 0 0 0
0 0 0 0 0 0 0 0 0 0 0 0 0 0 0 0 0 -0 0 0 0 -0 0 0 0 0 0 0 0 0 0 0 0 0 0 0 0 0 0 0 0 0 0 0 0 0 0 0 0 0 0 0 0 0
0 0 0 0 0 0 0 0 0 0 0 0 0 0 0 0 0 0 0 0 0 0 0 0 0 0 0 0 0 0 0 0 0 0 0 0 0 0 0 0 0 0 0 0 0 0 0 0 0 0 0 0 0 0
0 0 0 0 0 0 0 0 0 0 0 0 0 0 0 0 0 0 0 0 0 0 0 0 0 0 0 0 0 0 0 0 0 0 0 0 0 0 0 0 0 0 -0 -0 0 0 0 0 0 0 0 0 0 0
0 0 0 0 0 0 0 0 0 0 0 0 0 0 0 0 0 0 0 0 0 0 0 0 0 0 0 0 0 0 0 0 0 0 0 0 0 0 0 0 0 0 0 -0 -0 -0 0 0 0 0 -0 -0 0 0
0 0 0 0 0 0 0 0 0 0 0 0 0 0 0 0 0 0 0 0 0 0 0 0 0 0 0 0 0 0 0 0 0 0 0 0 0 0 0 0 0 -0 -0 -0 -0 -0 -0 0 -0 -0 -0 -0 0 0
0 0 0 0 0 0 0 0 0 0 0 0 0 0 0 0 0 0 0 0 0 0 0 0 0 0 0 0 0 0 0 0 0 0 0 0 0 0 0 0 0 0 -0 -0 -0 -0 0 0 -0 -0 -0 -0 -0 0
0 0 0 0 0 0 0 0 0 0 0 0 0 0 0 0 0 0 0 0 0 0 0 0 0 0 0 0 0 0 0 0 0 0 0 0 0 0 0 0 0 -0 -0 -0 -0 0 0 -0 -0 -0 -0 -0 0 0
0 0 0 0 0 0 0 0 0 0 0 0 0 0 0 0 0 0 0 0 0 0 0 0 0 0 0 0 0 0 0 0 0 0 0 0 0 0 0 0 0 -0 -0 -0 -0 0 0 -0 -0 -0 -0 -0 0 -0
0 0 0 0 0 0 0 0 0 0 0 0 0 0 0 0 0 0 0 0 0 0 0 0 0 0 0 0 0 0 0 0 0 0 0 0 0 0 0 0 0 -0 -0 -0 -0 0 0 -0 -0 -0 0 -0 0 -0
0 0 0 0 0 0 0 0 0 0 0 0 0 0 0 0 0 0 0 0 0 0 0 0 0 0 0 0 0 0 0 0 0 0 0 0 0 0 0 0 0 -0 -0 -0 -0 -0 -0 0 -0 -0 -0 -0 -0 -0
0 0 0 0 0 0 0 0 0 0 0 0 0 0 0 0 0 0 0 0 0 0 0 0 0 0 0 0 0 0 0 0 0 0 0 0 0 0 0 0 0 -0 -0 -0 0 -0 -0 -0 -0 -0 -0 -0 0 0
0 0 0 0 0 0 0 0 0 0 0 0 0 0 0 0 0 0 0 0 0 0 0 0 0 0 0 0 0 0 0 0 0 0 0 0 0 0 0 0 0 -0 -0 -0 -0 -0 -0 -0 -0 -0 -0 -0 0 0
0 0 0 0 0 0 0 0 0 0 0 0 0 0 0 0 0 0 0 0 0 0 0 0 0 0 0 0 0 0 0 0 0 0 0 0 0 0 0 0 0 -0 -0 -0 -0 -0 -0 -0 -0 -0 0 0 0 0
0 0 0 0 0 0 0 0 0 0 0 0 0 0 0 0 0 0 0 0 0 0 0 0 0 0 0 0 0 0 0 0 0 0 0 0 0 0 0 0 0 -0 -0 -0 -0 -0 -0 -0 -0 -0 -0 0 0 0
0 0 0 0 0 0 0 0 0 0 0 0 0 0 0 0 0 0 0 0 0 0 0 0 0 0 0 0 0 0 0 0 0 0 0 0 0 0 0 0 0 -0 -0 -0 -0 -0 -0 0 -0 -0 -0 -0 0 0
0 0 0 0 0 0 0 0 0 0 0 0 0 0 0 0 0 0 0 0 0 0 0 0 0 0 0 0 0 0 0 0 0 0 0 0 0 0 0 0 -0 -0 -0 -0 -0 -0 0 0 -0 -0 -0 -0 0 0
0 0 0 0 0 0 0 0 0 0 0 0 0 0 0 0 0 0 0 0 0 0 0 0 0 0 0 0 0 0 0 0 0 0 0 0 0 0 0 0 0 0 0 -0 -0 0 -0 -0 -0 -0 -0 0 -0 0
0 0 0 0 0 0 0 0 0 0 0 0 0 0 0 0 0 0 0 0 0 0 0 0 0 -0 -0 -0 0 0 -0 -0 -0 -0 0 0 0 0 0 0 0 0 0 0 -0 -0 -0 -0 -0 -0 -0 -0 -0 -0
0 0 0 0 0 0 0 0 0 0 0 0 0 0 0 0 0 0 0 0 0 0 0 0 0 0 0 0 0 0 0 -0 -0 -0 0 0 0 0 0 0 0 0 0 0 0 -0 0 -0 0 -0 -0 0 -0 -0
0 0 0 0 0 0 0 0 0 0 0 0 0 0 0 0 0 0 0 0 0 0 0 0 0 0 0 0 0 -0 0 -0 -0 0 0 0 0 0 0 0 0 0 -0 0 0 0 0 0 0 0 -0 -0 -0 -0
0 0 0 0 0 0 0 0 0 -0 0 0 0 0 0 0 0 0 0 0 0 0 0 0 0 0 0 0 0 0 0 0 0 0 0 0 0 0 0 0 0 0 0 0 0 0 0 0 0 0 0 -0 -0 -0
0 0 -0 0 0 -0 0 -0 -0 -0 -0 -0 -0 0 0 0 0 -0 0 0 0 0 0 0 0 0 0 0 0 0 0 0 0 0 0 0 0 0 0 0 0 0 0 0 0 0 0 0 0 0 0 0 0 0
0 0 0 0 0 0 0 0 0 -0 -0 0 0 0 0 0 -0 -0 -0 -0 0 0 0 0 0 0 0 0 0 0 0 0 0 0 0 0 0 0 0 0 0 0 0 0 0 0 0 0 0 0 0 0 0 0
0 -0 0 0 0 0 0 0 0 0 0 0 0 0 0 -0 -0 -0 -0 -0 -0 -0 -0 -0 -0 0 0 0 0 0 0 0 0 0 0 0 0 0 0 0 -0 0 0 0 0 0 0 0 0 0 0 0 0 0
0 0 0 0 0 0 0 0 0 0 0 0 0 0 0 0 0 -0 -0 0 0 0 0 -0 -0 0 0 0 0 0 0 0 0 0 0 0 0 0 0 0 0 0 0 0 0 0 0 0 0 0 0 0 0 0
0 0 0 0 0 0 0 0 0 0 0 0 0 0 0 0 0 0 0 0 0 0 0 0 0 0 0 0 0 0 0 0 0 0 0 0 0 0 0 0 0 0 0 0 0 0 0 0 0 0 0 0 0 0
0 0 0 0 0 0 0 0 0 0 0 0 0 0 0 0 0 0 0 0 0 0 0 0 0 0 0 0 0 0 0 0 0 0 0 0 0 0 0 0 0 0 0 -0 0 0 0 0 0 0 0 0 0 0
0 0 0 0 0 0 0 0 0 0 0 0 0 0 0 0 0 0 0 0 0 0 0 0 0 0 0 0 0 0 0 0 0 0 0 0 0 0 0 0 0 0 0 0 0 -0 -0 -0 0 0 -0 0 -0 -0
Wind_Speed_500mb
51 55 53 49 43 37 38 33 30 30 27 20 20 18 23 22 23 25 21 21 12 8 18 11 11 10 10 9 9 10 11 8 9 6 6 6 10 8 12 21 23 20 12 14 14 22 13 39 45 4 22 50 65 65
51 47 50 50 47 45 39 37 33 31 23 17 18 16 22 23 21 23 11 24 23 9 13 28 27 26 24 19 14 4 8 8 7 6 6 5 12 11 20 14 9 9 10 13 12 17 57 51 52 52 57 64 68 70
55 50 52 52 52 49 46 41 38 31 26 21 21 18 22 22 18 19 20 24 23 9 15 5 2 5 4 15 17 10 3 2 4 6 16 6 10 11 12 17 22 19 24 11 22 18 45 49 45 53 60 68 77 75
58 59 53 54 52 43 43 41 35 31 33 27 24 20 23 22 18 18 19 25 13 7 9 4 7 12 13 3 12 23 17 9 11 13 14 8 8 11 11 22 24 27 23 14 27 42 42 34 56 62 70 74 74 67
63 60 61 51 53 48 45 46 42 40 33 29 27 26 23 22 20 18 21 11 8 4 11 14 17 5 7 4 10 16 21 20 16 14 10 8 21 17 20 11 15 12 11 6 9 36 45 49 62 63 70 76 71 71
61 60 60 56 59 49 48 48 44 42 35 35 33 34 24 18 17 14 4 2 5 15 8 5 6 4 8 12 14 15 17 18 19 12 14 17 24 12 7 6 6 17 31 33 34 40 50 58 59 63 68 68 71 72
57 56 57 60 57 52 52 52 48 43 44 38 40 37 24 18 11 6 7 8 16 11 6 9 5 5 7 6 7 5 11 11 16 14 15 22 18 9 7 15 19 40 41 43 37 37 50 52 54 69 66 72 69 74
56 54 51 59 59 60 56 58 48 48 53 44 41 35 23 17 14 10 16 11 5 3 4 7 4 8 2 7 6 8 9 10 13 11 11 15 8 7 7 16 35 40 46 42 40 44 50 59 65 64 65 74 67 70
63 58 56 59 51 53 66 60 59 55 54 45 43 26 15 12 7 12 13 9 11 4 8 6 5 3 3 7 6 8 7 9 7 12 5 6 5 9 9 27 38 38 41 49 46 47 53 55 62 59 68 67 62 68
62 57 55 55 51 59 55 62 62 58 56 49 37 15 10 11 14 14 2 4 5 8 9 11 6 6 4 3 4 7 6 5 7 8 1 7 8 19 16 25 30 38 40 44 50 57 60 51 56 61 69 60 61 57
59 58 54 49 40 36 53 59 68 69 64 48 21 12 14 21 13 4 8 11 10 8 13 12 15 8 4 8 7 2 7 3 7 7 5 5 5 3 12 22 29 33 38 44 49 52 49 48 53 61 62 55 53 53
58 58 54 52 49 44 58 68 76 79 59 45 27 28 23 10 9 10 8 9 11 7 15 14 14 13 4 3 7 7 7 4 8 4 6 5 3 6 16 22 28 35 40 46 50 47 46 47 47 62 57 55 49 48
47 50 51 53 47 50 55 73 77 66 58 49 15 15 15 12 10 13 16 10 9 14 18 19 18 9 8 8 10 7 8 9 2 6 5 5 3 10 17 22 29 37 43 49 47 43 41 48 46 54 50 49 45 45
45 53 47 49 55 53 59 78 74 66 41 13 18 11 14 13 14 11 11 7 9 14 23 20 12 10 7 8 8 8 6 4 7 6 9 5 6 13 18 24 31 40 46 51 46 42 42 43 49 53 45 42 42 45
43 44 41 52 63 63 67 76 68 62 16 14 14 12 17 10 8 16 12 13 17 18 19 13 8 9 9 7 7 7 7 10 7 7 4 8 7 13 19 25 31 38 44 48 42 39 39 38 47 56 38 38 41 42
38 47 67 77 77 75 78 76 64 29 7 10 10 9 9 16 21 18 21 22 21 23 16 9 7 6 11 7 10 15 9 9 5 6 4 4 10 16 22 28 34 38 42 45 39 35 36 36 41 53 32 38 39 41
78 60 76 72 70 71 71 60 24 13 11 10 11 15 14 4 7 22 24 24 26 27 13 8 10 16 5 9 16 8 17 17 4 8 2 4 11 18 25 29 36 39 39 39 32 29 32 33 41 42 44 37 42 40
66 79 72 69 73 66 40 13 11 14 13 14 11 12 20 14 13 13 21 24 29 32 25 9 10 16 12 20 21 18 14 14 13 8 8 11 17 21 25 31 36 39 34 38 32 26 28 31 40 41 38 36 40 40
64 68 69 74 70 37 10 12 5 10 10 7 15 12 13 15 17 17 20 26 30 23 19 9 14 16 22 40 37 37 29 23 27 22 22 26 27 28 31 33 32 34 33 34 32 23 23 25 30 40 38 30 37 40
64 67 67 62 41 10 9 6 13 5 9 5 11 14 19 19 19 25 28 31 32 35 25 15 25 39 32 25 24 26 27 25 24 30 35 34 31 28 30 28 30 32 28 29 30 15 19 25 25 40 32 28 34 33
63 62 59 44 21 12 7 9 6 6 5 7 4 14 15 17 22 27 32 33 40 49 43 57 55 51 45 43 40 40 38 38 40 39 37 35 32 30 29 25 26 25 23 24 25 13 18 20 18 25 39 29 35 28
55 61 52 28 7 6 6 7 4 7 6 4 9 13 13 20 26 30 30 40 47 51 56 52 48 45 43 41 41 42 41 38 37 37 35 35 33 27 23 19 23 21 17 16 15 11 12 17 17 16 25 34 24 31
59 45 18 8 5 6 6 8 9 8 8 7 6 7 10 10 11 9 14 27 44 47 46 45 46 46 45 38 34 34 35 35 35 32 30 28 27 25 24 24 21 19 14 11 7 3 7 14 20 18 19 22 32 41
39 9 7 9 7 8 8 10 9 8 8 13 7 7 8 10 10 12 12 28 32 28 25 25 24 26 27 27 29 29 26 26 29 29 27 25 24 22 21 21 18 15 9 7 5 6 7 8 16 18 20 23 22 26
10 7 9 6 9 11 11 9 10 10 9 14 10 10 8 10 8 12 17 25 10 13 14 17 22 25 25 22 22 19 17 15 18 20 18 20 21 19 18 14 11 5 1 7 7 10 10 12 14 18 21 23 26 26
7 11 14 19 14 10 14 8 13 17 10 10 11 7 7 8 7 11 8 4 2 2 3 4 10 19 25 23 19 15 12 9 7 8 6 5 6 1 3 5 8 4 3 5 14 15 15 15 16 19 23 24 27 27
7 10 12 12 12 12 9 13 10 8 9 10 7 7 7 8 10 7 6 3 4 5 7 3 0 12 18 21 18 18 14 8 7 7 6 6 6 3 5 9 11 2 1 9 13 15 17 16 17 20 23 23 23 25
8 7 18 20 18 21 10 8 7 10 10 10 6 10 7 8 4 6 4 3 5 3 6 7 5 3 8 15 17 17 13 11 8 4 5 6 5 4 3 6 6 3 8 23 18 18 18 18 18 20 22 24 26 26
10 10 14 16 14 14 16 14 12 15 16 12 7 8 8 8 5 4 7 16 30 41 54 49 38 23 18 16 18 18 16 14 11 9 7 6 6 8 1 3 9 6 10 26 21 21 19 19 18 21 24 24 24 24
11 20 13 11 10 12 19 25 17 15 16 17 16 17 26 35 46 48 41 21 22 28 32 34 33 39 43 35 30 28 25 23 21 19 15 9 5 6 9 6 7 6 19 25 17 23 23 23 23 23 22 21 20 21
8 20 11 10 9 16 24 23 22 22 21 24 29 30 36 31 20 6 24 24 16 7 13 21 29 36 39 45 43 37 34 30 27 28 27 19 17 11 12 17 11 8 13 28 27 26 27 23 22 25 23 21 18 17
14 20 9 7 6 6 4 10 8 10 5 3 4 2 1 5 4 14 46 35 18 15 9 11 22 27 26 29 33 33 38 27 26 32 33 27 20 20 22 21 12 15 20 31 30 27 25 25 24 21 19 16 16 16
11 11 12 8 5 3 10 10 7 5 3 5 11 12 13 5 11 34 39 36 28 24 21 20 18 14 21 19 17 20 25 23 24 28 31 30 31 28 28 18 19 25 27 27 28 29 27 24 21 18 13 11 14 18
Wind_Direction_500mb
248 244 245 248 252 253 257 257 265 279 284 297 307 312 318 319 339 356 343 355 5 292 282 244 235 264 268 264 298 14 271 165 247 290 312 347 289 328 294 299 294 301 300 303 303 288 293 338 335 292 296 307 302 302
250 245 242 244 247 251 252 255 255 271 268 287 294 305 308 308 327 343 336 340 333 279 268 277 269 254 243 253 285 267 333 313 341 292 290 319 299 287 282 292 318 284 299 295 284 291 305 325 313 310 310 309 313 316
246 248 247 239 245 248 246 251 247 252 250 258 282 295 301 296 313 333 329 328 343 310 300 293 243 190 152 286 233 257 191 258 231 302 315 312 267 299 283 306 304 292 308 255 292 278 319 315 313 315 322 318 318 315
237 248 250 243 237 237 235 239 235 245 247 251 280 280 282 288 305 329 326 319 327 290 285 163 258 299 277 231 220 228 253 269 268 271 266 271 271 268 277 286 294 305 303 267 278 296 309 292 314 321 327 322 318 315
242 243 246 246 235 236 244 230 226 233 236 238 267 263 265 283 302 327 320 317 123 55 310 300 307 204 186 266 246 243 235 232 247 247 235 250 267 281 278 314 269 277 318 276 268 289 287 299 313 327 327 325 320 318
239 243 246 238 240 231 237 226 227 230 236 242 262 257 251 268 295 340 297 207 185 351 296 294 290 208 227 283 267 237 225 220 226 239 263 255 268 278 279 231 288 331 313 302 292 293 295 305 320 326 325 326 322 322
240 241 240 233 233 226 229 228 227 229 235 244 245 245 235 248 262 221 260 241 296 331 292 281 226 193 256 246 223 179 188 217 230 248 251 268 277 230 260 279 327 321 317 309 316 312 312 323 331 327 324 327 326 327
240 237 245 235 231 229 226 229 229 233 232 230 239 223 224 237 252 265 255 246 201 275 262 272 259 221 312 236 238 200 223 227 214 257 253 268 287 286 269 277 315 320 318 325 321 322 320 323 326 328 326 327 325 330
238 242 238 235 225 236 224 240 235 228 225 221 209 194 216 236 216 216 212 210 209 205 282 241 266 28 315 246 273 228 237 242 142 246 263 258 206 231 274 316 324 323 323 325 326 324 328 330 327 327 331 330 325 333
230 231 232 226 231 234 229 238 228 218 209 197 174 158 180 188 166 158 135 163 201 213 229 256 237 240 297 312 238 283 202 288 265 166 240 232 260 278 285 323 323 326 330 333 333 333 330 328 329 333 332 331 334 334
230 230 227 224 223 254 224 236 216 196 189 164 154 151 170 155 160 166 202 214 185 226 211 226 223 243 182 285 335 287 319 271 269 120 260 250 259 247 320 335 337 336 335 335 332 328 332 330 331 332 335 332 335 338
229 229 225 225 224 253 224 211 199 192 181 171 148 134 144 177 199 219 205 180 215 234 176 197 185 202 191 223 262 210 268 215 260 104 242 249 167 343 341 336 337 340 340 340 338 338 336 335 333 334 334 339 336 343
226 224 220 223 216 230 215 202 195 177 146 129 141 151 164 166 202 213 190 195 200 190 179 177 177 206 179 220 246 249 236 233 34 241 245 251 4 344 339 333 332 338 342 340 338 341 342 338 336 342 337 341 345 346
226 218 219 211 210 201 206 196 175 158 132 134 165 160 209 185 217 196 211 158 153 167 159 174 185 213 200 210 242 251 226 259 245 210 227 185 54 356 344 339 334 338 343 341 339 344 344 343 345 354 344 346 347 351
218 211 215 207 195 187 186 169 164 157 132 169 181 207 202 203 168 186 169 158 167 162 160 163 210 234 207 250 230 270 234 236 204 234 196 73 14 354 344 340 339 337 341 341 342 346 345 345 350 0 355 1 358 354
198 192 187 185 176 170 168 160 156 157 161 177 208 199 176 199 186 180 186 191 174 177 177 203 221 224 218 213 218 217 245 236 237 237 126 69 13 354 345 338 337 337 338 339 344 347 345 346 344 355 354 357 2 0
176 159 166 162 166 166 158 149 155 171 200 213 206 205 194 212 187 194 195 197 186 187 203 186 211 213 217 233 223 235 253 268 267 196 158 24 352 342 341 335 335 336 337 338 339 347 348 352 351 354 355 352 3 12
149 153 158 158 151 141 142 147 147 173 204 206 209 187 205 221 218 197 197 190 190 209 207 212 264 223 227 236 233 249 230 263 263 250 279 312 321 322 325 327 329 332 333 339 336 348 349 357 360 1 1 359 10 14
150 150 156 157 148 129 113 164 155 190 207 179 216 208 206 227 223 213 211 207 210 220 206 196 237 238 242 252 265 274 275 252 263 268 286 295 298 303 309 317 316 322 325 334 342 345 354 359 6 4 5 2 10 16
148 151 152 152 138 104 112 133 159 190 194 174 218 220 221 232 226 221 220 215 205 204 214 224 236 244 252 256 263 268 272 271 273 275 279 288 291 291 294 307 312 314 320 329 340 343 0 8 12 10 12 22 25 25
147 157 159 151 117 88 107 136 160 192 183 222 195 224 235 224 227 227 226 218 217 221 235 241 252 257 259 260 261 256 261 268 272 272 280 286 288 287 291 292 305 310 310 327 331 359 11 17 20 10 23 29 31 39
144 163 158 153 93 104 90 172 149 155 205 214 213 219 249 240 242 238 233 230 229 237 239 247 252 256 257 254 255 253 255 257 260 266 269 272 275 276 274 281 301 301 305 322 328 11 23 28 31 24 19 26 33 42
157 159 135 120 127 130 130 164 196 204 229 186 203 230 225 226 224 199 229 234 238 246 249 250 253 252 252 253 250 248 246 248 254 257 263 266 265 265 266 276 285 278 297 315 349 32 50 35 42 43 41 35 39 51
158 115 107 152 146 142 164 182 204 221 222 218 219 238 231 226 189 233 252 254 252 245 239 236 238 238 234 231 232 230 230 237 250 256 257 253 253 254 262 271 272 271 264 306 319 114 102 71 55 53 57 55 56 50
115 163 153 154 182 174 189 191 201 210 234 206 217 234 222 193 233 254 261 264 268 227 230 230 229 221 215 206 203 206 222 238 242 244 245 241 247 259 267 267 265 233 137 268 166 138 123 96 75 65 70 72 73 75
187 176 187 180 177 202 192 201 204 213 221 205 224 242 216 228 246 250 246 227 193 244 248 251 226 210 205 204 204 204 210 206 219 221 219 165 174 177 312 98 128 165 257 224 132 124 119 104 106 90 79 81 82 84
207 181 189 199 195 193 224 231 225 214 200 216 225 202 211 228 239 225 153 122 125 58 54 48 337 206 207 200 196 187 183 183 182 199 227 236 246 298 62 121 147 152 107 134 127 125 115 112 108 108 97 91 89 89
238 228 204 189 207 214 235 252 215 221 226 215 213 212 217 226 278 83 122 193 199 229 347 357 347 234 192 188 188 190 198 216 234 252 274 252 267 288 8 45 127 97 171 143 133 124 117 111 109 121 110 104 101 99
221 208 204 209 207 214 217 217 235 227 227 217 221 230 249 259 291 326 291 277 274 273 280 276 260 244 235 219 212 210 216 222 227 231 231 222 171 156 279 324 105 89 155 145 130 133 130 119 116 117 124 115 111 103
233 203 211 225 207 222 227 213 238 242 241 244 244 255 267 273 278 287 291 292 303 282 262 256 243 219 220 220 221 223 228 228 228 228 227 224 226 262 256 222 145 188 174 165 155 159 149 134 131 126 126 125 121 118
212 194 209 229 247 245 246 239 241 246 255 263 268 267 272 282 296 314 4 352 341 279 248 226 213 211 210 212 215 219 223 226 231 230 228 245 250 253 180 175 220 228 198 184 174 159 148 141 137 131 126 123 128 126
203 198 218 229 245 264 226 181 168 199 235 237 292 305 286 268 292 5 26 44 73 93 111 159 189 198 198 206 208 214 217 218 230 234 241 227 209 183 171 174 166 140 134 145 153 154 150 143 138 137 136 135 134 130
201 217 225 273 269 217 174 156 160 139 66 61 35 24 31 60 24 7 41 46 56 79 94 105 117 140 165 160 168 184 184 192 193 187 183 180 176 176 172 169 160 151 152 150 149 149 151 149 152 157 165 160 152 153
Wind_Speed_850mb
51 55 53 49 43 37 38 33 30 30 27 20 20 18 23 22 23 25 21 21 12 8 18 11 11 10 10 9 9 10 11 8 9 6 6 6 10 8 12 21 23 20 12 14 14 22 13 39 45 4 22 50 65 65
51 47 50 50 47 45 39 37 33 31 23 17 18 16 22 23 21 23 11 24 23 9 13 28 27 26 24 19 14 4 8 8 7 6 6 5 12 11 20 14 9 9 10 13 12 17 57 51 52 52 57 64 68 70
55 50 52 52 52 49 46 41 38 31 26 21 21 18 22 22 18 19 20 24 23 9 15 5 2 5 4 15 17 10 3 2 4 6 16 6 10 11 12 17 22 19 24 11 22 18 45 49 45 53 60 68 77 75
58 59 53 54 52 43 43 41 35 31 33 27 24 20 23 22 18 18 19 25 13 7 9 4 7 12 13 3 12 23 17 9 11 13 14 8 8 11 11 22 24 27 23 14 27 42 42 34 56 62 70 74 74 67
63 60 61 51 53 48 45 46 42 40 33 29 27 26 23 22 20 18 21 11 8 4 11 14 17 5 7 4 10 16 21 20 16 14 10 8 21 17 20 11 15 12 11 6 9 36 45 49 62 63 70 76 71 71
61 60 60 56 59 49 48 48 44 42 35 35 33 34 24 18 17 14 4 2 5 15 8 5 6 4 8 12 14 15 17 18 19 12 14 17 24 12 7 6 6 17 31 33 34 40 50 58 59 63 68 68 71 72
57 56 57 60 57 52 52 52 48 43 44 38 40 37 24 18 11 6 7 8 16 11 6 9 5 5 7 6 7 5 11 11 16 14 15 22 18 9 7 15 19 40 41 43 37 37 50 52 54 69 66 72 69 74
56 54 51 59 59 60 56 58 48 48 53 44 41 35 23 17 14 10 16 11 5 3 4 7 4 8 2 7 6 8 9 10 13 11 11 15 8 7 7 16 35 40 46 42 40 44 50 59 65 64 65 74 67 70
63 58 56 59 51 53 66 60 59 55 54 45 43 26 15 12 7 12 13 9 11 4 8 6 5 3 3 7 6 8 7 9 7 12 5 6 5 9 9 27 38 38 41 49 46 47 53 55 62 59 68 67 62 68
62 57 55 55 51 59 55 62 62 58 56 49 37 15 10 11 14 14 2 4 5 8 9 11 6 6 4 3 4 7 6 5 7 8 1 7 8 19 16 25 30 38 40 44 50 57 60 51 56 61 69 60 61 57
59 58 54 49 40 36 53 59 68 69 64 48 21 12 14 21 13 4 8 11 10 8 13 12 15 8 4 8 7 2 7 3 7 7 5 5 5 3 12 22 29 33 38 44 49 52 49 48 53 61 62 55 53 53
58 58 54 52 49 44 58 68 76 79 59 45 27 28 23 10 9 10 8 9 11 7 15 14 14 13 4 3 7 7 7 4 8 4 6 5 3 6 16 22 28 35 40 46 50 47 46 47 47 62 57 55 49 48
47 50 51 53 47 50 55 73 77 66 58 49 15 15 15 12 10 13 16 10 9 14 18 19 18 9 8 8 10 7 8 9 2 6 5 5 3 10 17 22 29 37 43 49 47 43 41 48 46 54 50 49 45 45
45 53 47 49 55 53 59 78 74 66 41 13 18 11 14 13 14 11 11 7 9 14 23 20 12 10 7 8 8 8 6 4 7 6 9 5 6 13 18 24 31 40 46 51 46 42 42 43 49 53 45 42 42 45
43 44 41 52 63 63 67 76 68 62 16 14 14 12 17 10 8 16 12 13 17 18 19 13 8 9 9 7 7 7 7 10 7 7 4 8 7 13 19 25 31 38 44 48 42 39 39 38 47 56 38 38 41 42
38 47 67 77 77 75 78 76 64 29 7 10 10 9 9 16 21 18 21 22 21 23 16 9 7 6 11 7 10 15 9 9 5 6 4 4 10 16 22 28 34 38 42 45 39 35 36 36 41 53 32 38 39 41
78 60 76 72 70 71 71 60 24 13 11 10 11 15 14 4 7 22 24 24 26 27 13 8 10 16 5 9 16 8 17 17 4 8 2 4 11 18 25 29 36 39 39 39 32 29 32 33 41 42 44 37 42 40
66 79 72 69 73 66 40 13 11 14 13 14 11 12 20 14 13 13 21 24 29 32 25 9 10 16 12 20 21 18 14 14 13 8 8 11 17 21 25 31 36 39 34 38 32 26 28 31 40 41 38 36 40 40
64 68 69 74 70 37 10 12 5 10 10 7 15 12 13 15 17 17 20 26 30 23 19 9 14 16 22 40 37 37 29 23 27 22 22 26 27 28 31 33 32 34 33 34 32 23 23 25 30 40 38 30 37 40
64 67 67 62 41 10 9 6 13 5 9 5 11 14 19 19 19 25 28 31 32 35 25 15 25 39 32 25 24 26 27 25 24 30 35 34 31 28 30 28 30 32 28 29 30 15 19 25 25 40 32 28 34 33
63 62 59 44 21 12 7 9 6 6 5 7 4 14 15 17 22 27 32 33 40 49 43 57 55 51 45 43 40 40 38 38 40 39 37 35 32 30 29 25 26 25 23 24 25 13 18 20 18 25 39 29 35 28
55 61 52 28 7 6 6 7 4 7 6 4 9 13 13 20 26 30 30 40 47 51 56 52 48 45 43 41 41 42 41 38 37 37 35 35 33 27 23 19 23 21 17 16 15 11 12 17 17 16 25 34 24 31
59 45 18 8 5 6 6 8 9 8 8 7 6 7 10 10 11 9 14 27 44 47 46 45 46 46 45 38 34 34 35 35 35 32 30 28 27 25 24 24 21 19 14 11 7 3 7 14 20 18 19 22 32 41
39 9 7 9 7 8 8 10 9 8 8 13 7 7 8 10 10 12 12 28 32 28 25 25 24 26 27 27 29 29 26 26 29 29 27 25 24 22 21 21 18 15 9 7 5 6 7 8 16 18 20 23 22 26
10 7 9 6 9 11 11 9 10 10 9 14 10 10 8 10 8 12 17 25 10 13 14 17 22 25 25 22 22 19 17 15 18 20 18 20 21 19 18 14 11 5 1 7 7 10 10 12 14 18 21 23 26 26
7 11 14 19 14 10 14 8 13 17 10 10 11 7 7 8 7 11 8 4 2 2 3 4 10 19 25 23 19 15 12 9 7 8 6 5 6 1 3 5 8 4 3 5 14 15 15 15 16 19 23 24 27 27
7 10 12 12 12 12 9 13 10 8 9 10 7 7 7 8 10 7 6 3 4 5 7 3 0 12 18 21 18 18 14 8 7 7 6 6 6 3 5 9 11 2 1 9 13 15 17 16 17 20 23 23 23 25
8 7 18 20 18 21 10 8 7 10 10 10 6 10 7 8 4 6 4 3 5 3 6 7 5 3 8 15 17 17 13 11 8 4 5 6 5 4 3 6 6 3 8 23 18 18 18 18 18 20 22 24 26 26
10 10 14 16 14 14 16 14 12 15 16 12 7 8 8 8 5 4 7 16 30 41 54 49 38 23 18 16 18 18 16 14 11 9 7 6 6 8 1 3 9 6 10 26 21 21 19 19 18 21 24 24 24 24
11 20 13 11 10 12 19 25 17 15 16 17 16 17 26 35 46 48 41 21 22 28 32 34 33 39 43 35 30 28 25 23 21 19 15 9 5 6 9 6 7 6 19 25 17 23 23 23 23 23 22 21 20 21
8 20 11 10 9 16 24 23 22 22 21 24 29 30 36 31 20 6 24 24 16 7 13 21 29 36 39 45 43 37 34 30 27 28 27 19 17 11 12 17 11 8 13 28 27 26 27 23 22 25 23 21 18 17
14 20 9 7 6 6 4 10 8 10 5 3 4 2 1 5 4 14 46 35 18 15 9 11 22 27 26 29 33 33 38 27 26 32 33 27 20 20 22 21 12 15 20 31 30 27 25 25 24 21 19 16 16 16
11 11 12 8 5 3 10 10 7 5 3 5 11 12 13 5 11 34 39 36 28 24 21 20 18 14 21 19 17 20 25 23 24 28 31 30 31 28 28 18 19 25 27 27 28 29 27 24 21 18 13 11 14 18
Wind_Direction_850mb
248 244 245 248 252 253 257 257 265 279 284 297 307 312 318 319 339 356 343 355 5 292 282 244 235 264 268 264 298 14 271 165 247 290 312 347 289 328 294 299 294 301 300 303 303 288 293 338 335 292 296 307 302 302
250 245 242 244 247 251 252 255 255 271 268 287 294 305 308 308 327 343 336 340 333 279 268 277 269 254 243 253 285 267 333 313 341 292 290 319 299 287 282 292 318 284 299 295 284 291 305 325 313 310 310 309 313 316
246 248 247 239 245 248 246 251 247 252 250 258 282 295 301 296 313 333 329 328 343 310 300 293 243 190 152 286 233 257 191 258 231 302 315 312 267 299 283 306 304 292 308 255 292 278 319 315 313 315 322 318 318 315
237 248 250 243 237 237 235 239 235 245 247 251 280 280 282 288 305 329 326 319 327 290 285 163 258 299 277 231 220 228 253 269 268 271 266 271 271 268 277 286 294 305 303 267 278 296 309 292 314 321 327 322 318 315
242 243 246 246 235 236 244 230 226 233 236 238 267 263 265 283 302 327 320 317 123 55 310 300 307 204 186 266 246 243 235 232 247 247 235 250 267 281 278 314 269 277 318 276 268 289 287 299 313 327 327 325 320 318
239 243 246 238 240 231 237 226 227 230 236 242 262 257 251 268 295 340 297 207 185 351 296 294 290 208 227 283 267 237 225 220 226 239 263 255 268 278 279 231 288 331 313 302 292 293 295 305 320 326 325 326 322 322
240 241 240 233 233 226 229 228 227 229 235 244 245 245 235 248 262 221 260 241 296 331 292 281 226 193 256 246 223 179 188 217 230 248 251 268 277 230 260 279 327 321 317 309 316 312 312 323 331 327 324 327 326 327
240 237 245 235 231 229 226 229 229 233 232 230 239 223 224 237 252 265 255 246 201 275 262 272 259 221 312 236 238 200 223 227 214 257 253 268 287 286 269 277 315 320 318 325 321 322 320 323 326 328 326 327 325 330
238 242 238 235 225 236 224 240 235 228 225 221 209 194 216 236 216 216 212 210 209 205 282 241 266 28 315 246 273 228 237 242 142 246 263 258 206 231 274 316 324 323 323 325 326 324 328 330 327 327 331 330 325 333
230 231 232 226 231 234 229 238 228 218 209 197 174 158 180 188 166 158 135 163 201 213 229 256 237 240 297 312 238 283 202 288 265 166 240 232 260 278 285 323 323 326 330 333 333 333 330 328 329 333 332 331 334 334
230 230 227 224 223 254 224 236 216 196 189 164 154 151 170 155 160 166 202 214 185 226 211 226 223 243 182 285 335 287 319 271 269 120 260 250 259 247 320 335 337 336 335 335 332 328 332 330 331 332 335 332 335 338
229 229 225 225 224 253 224 211 199 192 181 171 148 134 144 177 199 219 205 180 215 234 176 197 185 202 191 223 262 210 268 215 260 104 242 249 167 343 341 336 337 340 340 340 338 338 336 335 333 334 334 339 336 343
226 224 220 223 216 230 215 202 195 177 146 129 141 151 164 166 202 213 190 195 200 190 179 177 177 206 179 220 246 249 236 233 34 241 245 251 4 344 339 333 332 338 342 340 338 341 342 338 336 342 337 341 345 346
226 218 219 211 210 201 206 196 175 158 132 134 165 160 209 185 217 196 211 158 153 167 159 174 185 213 200 210 242 251 226 259 245 210 227 185 54 356 344 339 334 338 343 341 339 344 344 343 345 354 344 346 347 351
218 211 215 207 195 187 186 169 164 157 132 169 181 207 202 203 168 186 169 158 167 162 160 163 210 234 207 250 230 270 234 236 204 234 196 73 14 354 344 340 339 337 341 341 342 346 345 345 350 0 355 1 358 354
198 192 187 185 176 170 168 160 156 157 161 177 208 199 176 199 186 180 186 191 174 177 177 203 221 224 218 213 218 217 245 236 237 237 126 69 13 354 345 338 337 337 338 339 344 347 345 346 344 355 354 357 2 0
176 159 166 162 166 166 158 149 155 171 200 213 206 205 194 212 187 194 195 197 186 187 203 186 211 213 217 233 223 235 253 268 267 196 158 24 352 342 341 335 335 336 337 338 339 347 348 352 351 354 355 352 3 12
149 153 158 158 151 141 142 147 147 173 204 206 209 187 205 221 218 197 197 190 190 209 207 212 264 223 227 236 233 249 230 263 263 250 279 312 321 322 325 327 329 332 333 339 336 348 349 357 360 1 1 359 10 14
150 150 156 157 148 129 113 164 155 190 207 179 216 208 206 227 223 213 211 207 210 220 206 196 237 238 242 252 265 274 275 252 263 268 286 295 298 303 309 317 316 322 325 334 342 345 354 359 6 4 5 2 10 16
148 151 152 152 138 104 112 133 159 190 194 174 218 220 221 232 226 221 220 215 205 204 214 224 236 244 252 256 263 268 272 271 273 275 279 288 291 291 294 307 312 314 320 329 340 343 0 8 12 10 12 22 25 25
147 157 159 151 117 88 107 136 160 192 183 222 195 224 235 224 227 227 226 218 217 221 235 241 252 257 259 260 261 256 261 268 272 272 280 286 288 287 291 292 305 310 310 327 331 359 11 17 20 10 23 29 31 39
144 163 158 153 93 104 90 172 149 155 205 214 213 219 249 240 242 238 233 230 229 237 239 247 252 256 257 254 255 253 255 257 260 266 269 272 275 276 274 281 301 301 305 322 328 11 23 28 31 24 19 26 33 42
157 159 135 120 127 130 130 164 196 204 229 186 203 230 225 226 224 199 229 234 238 246 249 250 253 252 252 253 250 248 246 248 254 257 263 266 265 265 266 276 285 278 297 315 349 32 50 35 42 43 41 35 39 51
158 115 107 152 146 142 164 182 204 221 222 218 219 238 231 226 189 233 252 254 252 245 239 236 238 238 234 231 232 230 230 237 250 256 257 253 253 254 262 271 272 271 264 306 319 114 102 71 55 53 57 55 56 50
115 163 153 154 182 174 189 191 201 210 234 206 217 234 222 193 233 254 261 264 268 227 230 230 229 221 215 206 203 206 222 238 242 244 245 241 247 259 267 267 265 233 137 268 166 138 123 96 75 65 70 72 73 75
187 176 187 180 177 202 192 201 204 213 221 205 224 242 216 228 246 250 246 227 193 244 248 251 226 210 205 204 204 204 210 206 219 221 219 165 174 177 312 98 128 165 257 224 132 124 119 104 106 90 79 81 82 84
207 181 189 199 195 193 224 231 225 214 200 216 225 202 211 228 239 225 153 122 125 58 54 48 337 206 207 200 196 187 183 183 182 199 227 236 246 298 62 121 147 152 107 134 127 125 115 112 108 108 97 91 89 89
238 228 204 189 207 214 235 252 215 221 226 215 213 212 217 226 278 83 122 193 199 229 347 357 347 234 192 188 188 190 198 216 234 252 274 252 267 288 8 45 127 97 171 143 133 124 117 111 109 121 110 104 101 99
221 208 204 209 207 214 217 217 235 227 227 217 221 230 249 259 291 326 291 277 274 273 280 276 260 244 235 219 212 210 216 222 227 231 231 222 171 156 279 324 105 89 155 145 130 133 130 119 116 117 124 115 111 103
233 203 211 225 207 222 227 213 238 242 241 244 244 255 267 273 278 287 291 292 303 282 262 256 243 219 220 220 221 223 228 228 228 228 227 224 226 262 256 222 145 188 174 165 155 159 149 134 131 126 126 125 121 118
212 194 209 229 247 245 246 239 241 246 255 263 268 267 272 282 296 314 4 352 341 279 248 226 213 211 210 212 215 219 223 226 231 230 228 245 250 253 180 175 220 228 198 184 174 159 148 141 137 131 126 123 128 126
203 198 218 229 245 264 226 181 168 199 235 237 292 305 286 268 292 5 26 44 73 93 111 159 189 198 198 206 208 214 217 218 230 234 241 227 209 183 171 174 166 140 134 145 153 154 150 143 138 137 136 135 134 130
201 217 225 273 269 217 174 156 160 139 66 61 35 24 31 60 24 7 41 46 56 79 94 105 117 140 165 160 168 184 184 192 193 187 183 180 176 176 172 169 160 151 152 150 149 149 151 149 152 157 165 160 152 153